User: anonymous   Login
Location: Brahman Valley
(40.6513°N, 111.8855°W)
Time: 13:24:34
(UTC+00:00)
Language:

S-56A Canister/Altair - Orbit

View from above orbital plane
View from above orbital plane
View from above satellite
View from above satellite

Ground track
Ground track

The orbit data is extracted from the following two-line orbital elements,

1 00082U 61004B   21132.47195053 -.00000123  00000-0 -74353-4 0  9998
2 00082  38.8641  60.0605 1176561 231.5650 117.3580 12.26037925848190
Epoch (UTC): 12 May 2021 11:19:36
Eccentricity: 0.1176561
inclination: 38.8641°
perigee height: 631 km
apogee height: 2501 km
right ascension of ascending node: 60.0605°
argument of perigee: 231.5650°
revolutions per day: 12.26037925
mean anomaly at epoch: 117.3580°
orbit number at epoch: 84819

The dashed part of the orbit path shows where the satellite is in the earth's shadow,  

DLR